Starlink 4290

operational
NORAD ID: 53006 Int'l Des: 2022-076 Owner: SPXS Country: US Constellation: starlink
LEOCIRCULAR

关于 Starlink 4290

正在加载描述...

实时位置

正在加载3D地球...

即将过境

高度历史

Altitude vs Time

uPlot chart will show altitude changes over time

两行轨道根数

1 53006U 22076W 26036.93831344 -.00000346 00000-0 -36673-5 0 9998
2 53006 53.2165 236.6605 0001351 89.9299 270.1848 15.08845109198056
Epoch: Feb 5, 2026 • Age: 22 hours

当前状态

高度 542.9 km
速度 7.59 km/s
星下点 -10.62°S, 136.73°E
发射日期 Jul 7, 2022
运行时间 3.5 years
类型 internet

技术详情

分类 Payload
质量 297.00 kg
干质量 275.00 kg
总质量 297.00 kg
长度 0.20 m
直径 2.80 m
跨度 9.00 m
形状 Box + pan
制造商 SPXS
平台类型 Starlink
阶段状态 In Orbit
所有者/国家 SPXS/US

大型星座

Loading constellations...